| time (UTC) | temp F | wind direction | speed knots | gust knots | rain 1hr in | rain 24hr in | rain mn in | humidity % | barometer mb |
| 20260905224615 | 55 | 262 | 5.2 | 10.4 | 0.00 | 0.09 | 0.00 | 80 | 1023.7 |
| 20260905224058 | 56 | 250 | 5.2 | 12.2 | 0.00 | 0.09 | 0.00 | 79 | 1023.8 |
| 20260905223558 | 56 | 267 | 5.2 | 12.2 | 0.00 | 0.09 | 0.00 | 79 | 1023.7 |
| 20260905223108 | 56 | 268 | 4.3 | 11.3 | 0.00 | 0.09 | 0.00 | 79 | 1023.6 |
| 20260905222601 | 56 | 265 | 5.2 | 9.6 | 0.00 | 0.09 | 0.00 | 79 | 1023.7 |
| 20260905222057 | 56 | 275 | 4.3 | 8.7 | 0.00 | 0.09 | 0.00 | 79 | 1023.6 |
| 20260905221607 | 56 | 278 | 4.3 | 9.6 | 0.00 | 0.09 | 0.00 | 79 | 1023.5 |
| 20260905221058 | 56 | 288 | 4.3 | 9.6 | 0.00 | 0.09 | 0.00 | 79 | 1023.5 |
| 20260905220557 | 56 | 272 | 5.2 | 9.6 | 0.00 | 0.09 | 0.00 | 79 | 1023.5 |
| 20260905220105 | 56 | 252 | 3.5 | 9.6 | 0.00 | 0.09 | 0.00 | 79 | 1023.6 |
| 20260905215558 | 56 | 273 | 4.3 | 9.6 | 0.00 | 0.09 | 0.09 | 79 | 1023.5 |
| 20260905215058 | 56 | 268 | 4.3 | 10.4 | 0.00 | 0.09 | 0.09 | 78 | 1023.5 |
| 20260905214605 | 56 | 273 | 5.2 | 10.4 | 0.00 | 0.09 | 0.09 | 78 | 1023.4 |
| 20260905214057 | 57 | 270 | 4.3 | 8.7 | 0.00 | 0.09 | 0.09 | 78 | 1023.3 |
| 20260905213558 | 57 | 252 | 4.3 | 9.6 | 0.00 | 0.09 | 0.09 | 77 | 1023.3 |
| 20260905213106 | 57 | 360 | 3.5 | 11.3 | 0.00 | 0.09 | 0.09 | 77 | 1023.2 |
| 20260905212557 | 57 | 245 | 6.1 | 11.3 | 0.00 | 0.09 | 0.09 | 77 | 1023.2 |
| 20260905212058 | 57 | 287 | 5.2 | 9.6 | 0.00 | 0.09 | 0.09 | 77 | 1023.1 |
| 20260905211604 | 57 | 264 | 4.3 | 9.6 | 0.00 | 0.09 | 0.09 | 77 | 1023.1 |
| 20260905211057 | 57 | 360 | 5.2 | 10.4 | 0.00 | 0.09 | 0.09 | 77 | 1023.0 |
| 20260905210556 | 57 | 360 | 4.3 | 11.3 | 0.00 | 0.09 | 0.09 | 77 | 1022.9 |
| 20260905205558 | 57 | 360 | 6.1 | 10.4 | 0.00 | 0.09 | 0.09 | 77 | 1022.9 |
| 20260905205058 | 57 | 262 | 4.3 | 10.4 | 0.00 | 0.09 | 0.09 | 77 | 1022.8 |
| 20260905204606 | 57 | 276 | 5.2 | 10.4 | 0.00 | 0.09 | 0.09 | 77 | 1022.7 |
| 20260905204057 | 58 | 252 | 5.2 | 11.3 | 0.00 | 0.09 | 0.09 | 77 | 1022.7 |
| 20260905203559 | 58 | 360 | 4.3 | 11.3 | 0.00 | 0.09 | 0.09 | 77 | 1022.6 |
| 20260905203106 | 58 | 360 | 5.2 | 11.3 | 0.00 | 0.09 | 0.09 | 76 | 1022.7 |
| 20260905202600 | 58 | 279 | 3.5 | 12.2 | 0.00 | 0.09 | 0.09 | 76 | 1022.6 |
| 20260905202100 | 58 | 288 | 5.2 | 12.2 | 0.00 | 0.09 | 0.09 | 75 | 1022.5 |
| 20260905201613 | 58 | 257 | 5.2 | 11.3 | 0.00 | 0.09 | 0.09 | 75 | 1022.6 |
| 20260905201058 | 58 | 259 | 6.1 | 11.3 | 0.00 | 0.09 | 0.09 | 75 | 1022.5 |
| 20260905200557 | 58 | 281 | 5.2 | 11.3 | 0.00 | 0.09 | 0.09 | 75 | 1022.5 |
| 20260905200104 | 58 | 259 | 6.1 | 11.3 | 0.00 | 0.09 | 0.09 | 75 | 1022.6 |
| 20260905195556 | 59 | 263 | 7.0 | 10.4 | 0.00 | 0.09 | 0.09 | 75 | 1022.5 |
| 20260905195057 | 59 | 270 | 6.1 | 10.4 | 0.00 | 0.09 | 0.09 | 76 | 1022.4 |
| 20260905194607 | 59 | 360 | 4.3 | 10.4 | 0.00 | 0.09 | 0.09 | 75 | 1022.4 |
| 20260905194100 | 59 | 360 | 6.1 | 12.2 | 0.00 | 0.09 | 0.09 | 75 | 1022.4 |
| 20260905193559 | 59 | 360 | 5.2 | 12.2 | 0.00 | 0.09 | 0.09 | 75 | 1022.3 |
| 20260905193104 | 59 | 360 | 7.0 | 12.2 | 0.00 | 0.09 | 0.09 | 75 | 1022.2 |
| 20260905192558 | 59 | 360 | 4.3 | 10.4 | 0.00 | 0.09 | 0.09 | 75 | 1022.1 |
| 20260905192057 | 59 | 360 | 5.2 | 10.4 | 0.00 | 0.09 | 0.09 | 74 | 1022.1 |
| 20260905191610 | 59 | 360 | 6.1 | 11.3 | 0.00 | 0.09 | 0.09 | 74 | 1022.0 |
| 20260905191057 | 59 | 360 | 5.2 | 12.2 | 0.00 | 0.09 | 0.09 | 74 | 1021.9 |
| 20260905190556 | 60 | 360 | 5.2 | 12.2 | 0.00 | 0.09 | 0.09 | 74 | 1021.8 |
| 20260905190132 | 60 | 360 | 6.1 | 11.3 | 0.00 | 0.09 | 0.09 | 74 | 1021.8 |
| 20260905185556 | 60 | 360 | 6.1 | 11.3 | 0.00 | 0.09 | 0.09 | 74 | 1021.8 |
| 20260905185058 | 60 | 360 | 6.1 | 11.3 | 0.00 | 0.09 | 0.09 | 75 | 1021.8 |
| 20260905184620 | 60 | 360 | 6.1 | 11.3 | 0.00 | 0.09 | 0.09 | 74 | 1021.7 |
| 20260905184101 | 60 | 360 | 4.3 | 12.2 | 0.00 | 0.09 | 0.09 | 74 | 1021.6 |
| 20260905183559 | 60 | 360 | 6.1 | 12.2 | 0.00 | 0.09 | 0.09 | 74 | 1021.5 |
| 20260905183109 | 60 | 360 | 5.2 | 9.6 | 0.00 | 0.09 | 0.09 | 74 | 1021.4 |
| 20260905182557 | 60 | 360 | 4.3 | 12.2 | 0.00 | 0.09 | 0.09 | 73 | 1021.4 |
| 20260905182058 | 61 | 360 | 4.3 | 12.2 | 0.00 | 0.09 | 0.09 | 72 | 1021.2 |
| 20260905181603 | 61 | 360 | 5.2 | 13.0 | 0.00 | 0.09 | 0.09 | 71 | 1021.0 |
| 20260905181057 | 61 | 360 | 7.8 | 13.0 | 0.00 | 0.09 | 0.09 | 71 | 1020.9 |
| 20260905180557 | 61 | 360 | 5.2 | 13.9 | 0.00 | 0.09 | 0.09 | 71 | 1020.9 |
| 20260905180100 | 61 | 360 | 5.2 | 13.9 | 0.00 | 0.09 | 0.09 | 71 | 1020.9 |
| 20260905175557 | 62 | 360 | 6.1 | 13.9 | 0.00 | 0.13 | 0.09 | 71 | 1020.8 |
| 20260905175057 | 62 | 360 | 6.1 | 12.2 | 0.00 | 0.13 | 0.09 | 71 | 1020.8 |
| 20260905174603 | 62 | 360 | 6.1 | 12.2 | 0.00 | 0.13 | 0.09 | 71 | 1020.7 |
| 20260905174057 | 62 | 360 | 5.2 | 13.9 | 0.00 | 0.13 | 0.09 | 72 | 1020.7 |
| 20260905173601 | 62 | 360 | 6.1 | 13.9 | 0.00 | 0.13 | 0.09 | 72 | 1020.6 |
| 20260905173109 | 62 | 360 | 5.2 | 12.2 | 0.00 | 0.13 | 0.09 | 73 | 1020.6 |
| 20260905172559 | 62 | 360 | 4.3 | 9.6 | 0.00 | 0.13 | 0.09 | 74 | 1020.5 |
| 20260905172100 | 62 | 360 | 3.5 | 8.7 | 0.00 | 0.13 | 0.09 | 74 | 1020.5 |
| 20260905171603 | 62 | 360 | 2.6 | 11.3 | 0.00 | 0.13 | 0.09 | 74 | 1020.4 |
| 20260905171057 | 62 | 360 | 3.5 | 11.3 | 0.00 | 0.13 | 0.09 | 74 | 1020.4 |
| 20260905170557 | 62 | 360 | 6.1 | 11.3 | 0.00 | 0.13 | 0.09 | 75 | 1020.3 |
| 20260905170113 | 62 | 360 | 4.3 | 12.2 | 0.00 | 0.13 | 0.09 | 76 | 1020.1 |
| 20260905165557 | 62 | 360 | 5.2 | 12.2 | 0.00 | 0.32 | 0.09 | 75 | 1020.1 |
| 20260905165059 | 62 | 360 | 5.2 | 12.2 | 0.00 | 0.32 | 0.09 | 76 | 1020.0 |
| 20260905164559 | 62 | 360 | 4.3 | 15.6 | 0.00 | 0.32 | 0.09 | 76 | 1020.0 |
| 20260905164057 | 62 | 360 | 6.1 | 15.6 | 0.00 | 0.32 | 0.09 | 76 | 1020.0 |
| 20260905163557 | 62 | 360 | 6.1 | 13.0 | 0.00 | 0.32 | 0.09 | 76 | 1019.9 |
| 20260905163105 | 62 | 360 | 6.1 | 13.0 | 0.00 | 0.32 | 0.09 | 77 | 1019.8 |
| 20260905162558 | 61 | 360 | 5.2 | 14.8 | 0.00 | 0.32 | 0.09 | 79 | 1019.8 |
| 20260905162058 | 61 | 360 | 6.1 | 17.4 | 0.00 | 0.32 | 0.09 | 80 | 1019.7 |
| 20260905161604 | 61 | 360 | 5.2 | 17.4 | 0.00 | 0.32 | 0.09 | 80 | 1019.6 |
| 20260905161057 | 61 | 360 | 8.7 | 17.4 | 0.00 | 0.32 | 0.09 | 79 | 1019.5 |
| 20260905160556 | 62 | 360 | 7.8 | 17.4 | 0.00 | 0.32 | 0.09 | 78 | 1019.6 |
| 20260905160100 | 63 | 360 | 8.7 | 17.4 | 0.00 | 0.31 | 0.08 | 75 | 1019.5 |
| 20260905155556 | 64 | 360 | 5.2 | 13.9 | 0.00 | 0.43 | 0.08 | 74 | 1019.4 |
| 20260905155056 | 64 | 360 | 5.2 | 14.8 | 0.00 | 0.43 | 0.08 | 73 | 1019.3 |
| 20260905154558 | 64 | 360 | 7.0 | 14.8 | 0.00 | 0.43 | 0.08 | 72 | 1019.3 |
| 20260905154058 | 64 | 360 | 7.0 | 14.8 | 0.00 | 0.43 | 0.08 | 72 | 1019.2 |
| 20260905153558 | 64 | 295 | 5.2 | 12.2 | 0.00 | 0.43 | 0.08 | 74 | 1019.1 |
| 20260905153104 | 65 | 360 | 6.1 | 13.0 | 0.00 | 0.43 | 0.08 | 72 | 1019.1 |
| 20260905152556 | 65 | 360 | 6.1 | 13.0 | 0.00 | 0.43 | 0.08 | 72 | 1019.1 |
| 20260905152057 | 64 | 360 | 7.8 | 12.2 | 0.00 | 0.43 | 0.08 | 74 | 1019.0 |
| 20260905151603 | 63 | 360 | 4.3 | 13.9 | 0.00 | 0.43 | 0.08 | 75 | 1019.0 |
| 20260905151057 | 63 | 360 | 6.1 | 14.8 | 0.00 | 0.43 | 0.08 | 75 | 1018.8 |
| 20260905150556 | 63 | 360 | 8.7 | 18.2 | 0.00 | 0.43 | 0.08 | 74 | 1018.8 |
| 20260905150058 | 64 | 360 | 8.7 | 18.2 | 0.00 | 0.43 | 0.08 | 74 | 1018.8 |
| 20260905145557 | 63 | 360 | 9.6 | 19.1 | 0.00 | 0.49 | 0.08 | 73 | 1018.7 |
| 20260905145056 | 64 | 360 | 10.4 | 19.1 | 0.00 | 0.49 | 0.08 | 72 | 1018.7 |
| 20260905144602 | 64 | 277 | 8.7 | 21.7 | 0.00 | 0.49 | 0.08 | 71 | 1018.6 |
| 20260905144057 | 64 | 269 | 10.4 | 22.6 | 0.00 | 0.49 | 0.08 | 71 | 1018.6 |
| 20260905143556 | 64 | 277 | 11.3 | 22.6 | 0.00 | 0.49 | 0.08 | 70 | 1018.4 |
| 20260905143103 | 65 | 234 | 9.6 | 20.9 | 0.00 | 0.49 | 0.08 | 71 | 1018.4 |
| 20260905142600 | 66 | 360 | 10.4 | 25.2 | 0.00 | 0.49 | 0.08 | 70 | 1018.3 |
| 20260905142057 | 65 | 360 | 9.6 | 25.2 | 0.00 | 0.49 | 0.08 | 71 | 1018.1 |
| 20260905141629 | 66 | 360 | 13.0 | 25.2 | 0.00 | 0.49 | 0.08 | 70 | 1018.1 |
| 20260905141059 | 66 | 263 | 12.2 | 19.1 | 0.00 | 0.49 | 0.08 | 72 | 1018.1 |
| 20260905140600 | 65 | 250 | 8.7 | 18.2 | 0.00 | 0.49 | 0.08 | 74 | 1018.1 |
| 20260905140058 | 65 | 281 | 10.4 | 21.7 | 0.00 | 0.49 | 0.08 | 73 | 1018.2 |
| 20260905135558 | 65 | 360 | 12.2 | 21.7 | 0.00 | 0.63 | 0.08 | 74 | 1018.1 |
| 20260905135056 | 65 | 360 | 7.8 | 23.5 | 0.00 | 0.63 | 0.08 | 77 | 1018.2 |
| 20260905134603 | 64 | 360 | 12.2 | 23.5 | 0.02 | 0.63 | 0.08 | 76 | 1018.2 |
| 20260905134056 | 64 | 360 | 13.0 | 21.7 | 0.03 | 0.63 | 0.08 | 77 | 1018.2 |
| 20260905133557 | 64 | 360 | 10.4 | 21.7 | 0.07 | 0.63 | 0.08 | 78 | 1018.2 |
| 20260905133059 | 63 | 360 | 8.7 | 19.1 | 0.07 | 0.63 | 0.08 | 80 | 1018.3 |
| 20260905132557 | 63 | 360 | 11.3 | 19.1 | 0.07 | 0.63 | 0.08 | 82 | 1018.2 |
| 20260905132057 | 62 | 360 | 8.7 | 19.1 | 0.08 | 0.63 | 0.08 | 83 | 1018.1 |
| 20260905131632 | 62 | 360 | 9.6 | 18.2 | 0.08 | 0.63 | 0.08 | 85 | 1018.1 |
| 20260905131058 | 61 | 360 | 8.7 | 16.5 | 0.08 | 0.63 | 0.08 | 86 | 1018.1 |
| 20260905130558 | 60 | 360 | 7.0 | 13.0 | 0.08 | 0.63 | 0.08 | 87 | 1018.1 |
| 20260905130108 | 60 | 360 | 7.0 | 13.0 | 0.08 | 0.63 | 0.08 | 88 | 1018.2 |
| 20260905125556 | 60 | 360 | 6.1 | 18.2 | 0.08 | 0.63 | 0.08 | 89 | 1018.1 |
| 20260905125056 | 60 | 360 | 6.1 | 18.2 | 0.08 | 0.63 | 0.08 | 89 | 1018.1 |
| 20260905124607 | 60 | 360 | 7.8 | 18.2 | 0.06 | 0.61 | 0.06 | 86 | 1018.3 |
| 20260905124056 | 60 | 360 | 4.3 | 12.2 | 0.05 | 0.60 | 0.05 | 86 | 1018.1 |
| 20260905123556 | 61 | 360 | 4.3 | 13.0 | 0.01 | 0.56 | 0.01 | 81 | 1018.0 |
| 20260905123111 | 62 | 360 | 7.8 | 14.8 | 0.01 | 0.56 | 0.01 | 79 | 1017.7 |
| 20260905122557 | 62 | 360 | 7.0 | 14.8 | 0.00 | 0.55 | 0.00 | 77 | 1017.7 |
| 20260905122056 | 63 | 360 | 4.3 | 17.4 | 0.00 | 0.55 | 0.00 | 74 | 1017.5 |
| 20260905121558 | 64 | 360 | 9.6 | 17.4 | 0.00 | 0.55 | 0.00 | 71 | 1017.5 |
| 20260905121057 | 65 | 360 | 10.4 | 17.4 | 0.00 | 0.55 | 0.00 | 68 | 1017.3 |
| 20260905120557 | 65 | 360 | 9.6 | 16.5 | 0.00 | 0.55 | 0.00 | 68 | 1017.2 |
| 20260905120107 | 66 | 360 | 8.7 | 16.5 | 0.00 | 0.55 | 0.00 | 67 | 1017.2 |
| 20260905115556 | 67 | 258 | 8.7 | 17.4 | 0.00 | 0.55 | 0.00 | 67 | 1017.2 |
| 20260905115056 | 66 | 360 | 7.8 | 17.4 | 0.00 | 0.55 | 0.00 | 69 | 1017.2 |
| 20260905114606 | 65 | 360 | 8.7 | 17.4 | 0.00 | 0.55 | 0.00 | 71 | 1017.3 |
| 20260905114057 | 65 | 288 | 7.8 | 13.9 | 0.00 | 0.55 | 0.00 | 73 | 1017.3 |
| 20260905113558 | 64 | 233 | 7.0 | 14.8 | 0.00 | 0.55 | 0.00 | 74 | 1017.4 |
| 20260905113110 | 65 | 259 | 7.8 | 17.4 | 0.00 | 0.55 | 0.00 | 71 | 1017.4 |
| 20260905112557 | 65 | 256 | 10.4 | 17.4 | 0.00 | 0.55 | 0.00 | 70 | 1017.1 |
| 20260905112056 | 66 | 298 | 9.6 | 17.4 | 0.00 | 0.55 | 0.00 | 66 | 1017.1 |
| 20260905111606 | 66 | 236 | 8.7 | 17.4 | 0.00 | 0.55 | 0.00 | 66 | 1017.0 |
| 20260905111056 | 65 | 280 | 8.7 | 17.4 | 0.00 | 0.55 | 0.00 | 67 | 1017.2 |
| 20260905110557 | 65 | 281 | 9.6 | 22.6 | 0.00 | 0.55 | 0.00 | 67 | 1017.1 |
| 20260905110104 | 66 | 301 | 9.6 | 22.6 | 0.00 | 0.55 | 0.00 | 66 | 1017.0 |
| 20260905105556 | 66 | 239 | 7.8 | 20.9 | 0.00 | 0.55 | 0.00 | 67 | 1017.0 |
| 20260905105058 | 66 | 298 | 8.7 | 20.0 | 0.00 | 0.55 | 0.00 | 67 | 1017.1 |
| 20260905104604 | 66 | 240 | 8.7 | 20.0 | 0.00 | 0.55 | 0.00 | 66 | 1017.1 |
| 20260905104057 | 66 | 263 | 10.4 | 20.0 | 0.00 | 0.55 | 0.00 | 66 | 1017.2 |
| 20260905103558 | 66 | 242 | 12.2 | 18.2 | 0.00 | 0.55 | 0.00 | 66 | 1017.1 |
| 20260905103102 | 66 | 241 | 7.8 | 14.8 | 0.00 | 0.55 | 0.00 | 67 | 1017.1 |
| 20260905102556 | 66 | 244 | 7.8 | 19.1 | 0.00 | 0.55 | 0.00 | 67 | 1017.1 |
| 20260905102058 | 66 | 233 | 11.3 | 19.1 | 0.00 | 0.55 | 0.00 | 66 | 1017.1 |
| 20260905101622 | 66 | 238 | 12.2 | 18.2 | 0.00 | 0.55 | 0.00 | 67 | 1017.0 |
| 20260905101059 | 66 | 246 | 10.4 | 19.1 | 0.00 | 0.55 | 0.00 | 67 | 1017.1 |
| 20260905100557 | 66 | 279 | 9.6 | 19.1 | 0.00 | 0.55 | 0.00 | 67 | 1017.0 |
| 20260905100059 | 66 | 230 | 11.3 | 19.1 | 0.00 | 0.55 | 0.00 | 67 | 1017.0 |
| 20260905095557 | 66 | 246 | 8.7 | 18.2 | 0.00 | 0.55 | 0.00 | 67 | 1017.0 |
| 20260905095056 | 66 | 246 | 8.7 | 18.2 | 0.00 | 0.55 | 0.00 | 67 | 1016.8 |
| 20260905094607 | 66 | 252 | 10.4 | 20.9 | 0.00 | 0.55 | 0.00 | 67 | 1017.0 |
| 20260905094056 | 66 | 242 | 9.6 | 21.7 | 0.00 | 0.55 | 0.00 | 69 | 1017.0 |
| 20260905093556 | 66 | 238 | 12.2 | 21.7 | 0.00 | 0.55 | 0.00 | 68 | 1017.0 |
| 20260905093103 | 65 | 234 | 8.7 | 20.9 | 0.00 | 0.55 | 0.00 | 72 | 1016.9 |
| 20260905092556 | 65 | 270 | 8.7 | 20.9 | 0.00 | 0.55 | 0.00 | 70 | 1016.9 |
| 20260905092055 | 65 | 258 | 11.3 | 19.1 | 0.00 | 0.55 | 0.00 | 71 | 1016.9 |
| 20260905091629 | 65 | 246 | 11.3 | 19.1 | 0.00 | 0.55 | 0.00 | 71 | 1016.8 |
| 20260905091056 | 64 | 249 | 6.1 | 19.1 | 0.00 | 0.55 | 0.00 | 73 | 1016.7 |
| 20260905090556 | 64 | 234 | 9.6 | 19.1 | 0.00 | 0.55 | 0.00 | 73 | 1016.6 |
| 20260905085557 | 63 | 259 | 7.0 | 20.9 | 0.00 | 0.55 | 0.00 | 76 | 1016.7 |
| 20260905085057 | 63 | 292 | 8.7 | 20.9 | 0.00 | 0.55 | 0.00 | 76 | 1016.8 |
| 20260905084619 | 63 | 242 | 10.4 | 20.0 | 0.00 | 0.55 | 0.00 | 75 | 1016.9 |
| 20260905084056 | 63 | 257 | 9.6 | 19.1 | 0.00 | 0.55 | 0.00 | 75 | 1016.9 |
| 20260905083556 | 63 | 286 | 8.7 | 17.4 | 0.00 | 0.55 | 0.00 | 74 | 1016.8 |
| 20260905083101 | 63 | 272 | 7.8 | 20.0 | 0.00 | 0.55 | 0.00 | 74 | 1016.7 |
| 20260905082557 | 64 | 279 | 8.7 | 20.0 | 0.00 | 0.55 | 0.00 | 73 | 1016.5 |
| 20260905082056 | 64 | 252 | 8.7 | 17.4 | 0.00 | 0.55 | 0.00 | 74 | 1016.4 |
| 20260905081559 | 64 | 224 | 7.8 | 16.5 | 0.00 | 0.55 | 0.00 | 74 | 1016.4 |
| 20260905081057 | 64 | 239 | 8.7 | 19.1 | 0.00 | 0.55 | 0.00 | 76 | 1016.4 |
| 20260905080556 | 63 | 263 | 9.6 | 19.1 | 0.00 | 0.55 | 0.00 | 76 | 1016.4 |
| 20260905080109 | 63 | 265 | 10.4 | 19.1 | 0.00 | 0.55 | 0.00 | 76 | 1016.3 |
| 20260905075559 | 63 | 268 | 9.6 | 18.2 | 0.00 | 0.55 | 0.00 | 76 | 1016.3 |
| 20260905075057 | 63 | 282 | 7.0 | 16.5 | 0.00 | 0.55 | 0.00 | 77 | 1016.2 |
| 20260905074601 | 62 | 255 | 7.8 | 16.5 | 0.00 | 0.55 | 0.00 | 77 | 1016.3 |
| 20260905074056 | 62 | 262 | 8.7 | 15.6 | 0.00 | 0.55 | 0.00 | 77 | 1016.2 |
| 20260905073556 | 62 | 252 | 7.0 | 15.6 | 0.00 | 0.55 | 0.00 | 78 | 1016.2 |
| 20260905073100 | 62 | 285 | 5.2 | 16.5 | 0.00 | 0.55 | 0.00 | 79 | 1016.1 |
| 20260905072558 | 62 | 272 | 8.7 | 16.5 | 0.00 | 0.55 | 0.00 | 78 | 1016.1 |
| 20260905072057 | 62 | 252 | 7.8 | 16.5 | 0.00 | 0.55 | 0.00 | 79 | 1016.0 |
| 20260905071605 | 61 | 246 | 7.0 | 13.9 | 0.00 | 0.55 | 0.00 | 80 | 1015.9 |
| 20260905071058 | 61 | 240 | 7.0 | 13.9 | 0.00 | 0.55 | 0.00 | 80 | 1016.0 |
| 20260905070556 | 61 | 279 | 7.0 | 13.9 | 0.00 | 0.55 | 0.00 | 81 | 1015.9 |
| 20260905070106 | 60 | 238 | 6.1 | 13.0 | 0.00 | 0.55 | 0.00 | 82 | 1015.7 |
| 20260905065556 | 60 | 248 | 7.8 | 13.0 | 0.00 | 0.55 | 0.00 | 82 | 1015.8 |
| 20260905065056 | 60 | 262 | 6.1 | 13.9 | 0.00 | 0.55 | 0.00 | 82 | 1015.8 |
| 20260905064559 | 60 | 234 | 7.8 | 14.8 | 0.00 | 0.55 | 0.00 | 83 | 1015.7 |
| 20260905064058 | 59 | 226 | 6.1 | 15.6 | 0.00 | 0.55 | 0.00 | 83 | 1015.6 |
| 20260905063557 | 59 | 240 | 7.0 | 15.6 | 0.00 | 0.55 | 0.00 | 84 | 1015.6 |
| 20260905063059 | 59 | 254 | 7.0 | 15.6 | 0.00 | 0.55 | 0.00 | 85 | 1015.5 |
| 20260905062557 | 58 | 234 | 6.1 | 15.6 | 0.00 | 0.55 | 0.00 | 85 | 1015.5 |
| 20260905062058 | 58 | 259 | 7.0 | 15.6 | 0.00 | 0.55 | 0.00 | 85 | 1015.5 |
| 20260905061618 | 57 | 221 | 4.3 | 10.4 | 0.00 | 0.55 | 0.00 | 86 | 1015.5 |
| 20260905061057 | 57 | 236 | 3.5 | 9.6 | 0.00 | 0.55 | 0.00 | 87 | 1015.5 |
| 20260905060557 | 57 | 239 | 4.3 | 11.3 | 0.00 | 0.55 | 0.00 | 87 | 1015.4 |
| 20260905060107 | 57 | 266 | 5.2 | 11.3 | 0.00 | 0.55 | 0.00 | 87 | 1015.4 |
| 20260905055558 | 57 | 236 | 6.1 | 10.4 | 0.00 | 0.55 | 0.00 | 87 | 1015.5 |
| 20260905055057 | 56 | 237 | 5.2 | 11.3 | 0.00 | 0.55 | 0.00 | 87 | 1015.5 |
| 20260905054605 | 56 | 240 | 4.3 | 11.3 | 0.00 | 0.55 | 0.00 | 88 | 1015.4 |
| 20260905054058 | 56 | 239 | 6.1 | 13.0 | 0.00 | 0.55 | 0.00 | 88 | 1015.4 |
| 20260905053558 | 56 | 238 | 4.3 | 13.0 | 0.00 | 0.55 | 0.00 | 88 | 1015.4 |
| 20260905053113 | 56 | 247 | 3.5 | 10.4 | 0.00 | 0.55 | 0.00 | 88 | 1015.4 |
| 20260905052558 | 56 | 248 | 6.1 | 10.4 | 0.00 | 0.55 | 0.00 | 88 | 1015.3 |
| 20260905052058 | 56 | 247 | 5.2 | 10.4 | 0.00 | 0.55 | 0.00 | 88 | 1015.3 |
| 20260905051605 | 56 | 254 | 5.2 | 9.6 | 0.00 | 0.55 | 0.00 | 88 | 1015.2 |
| 20260905051057 | 56 | 245 | 5.2 | 9.6 | 0.00 | 0.55 | 0.00 | 88 | 1015.2 |
| 20260905050558 | 56 | 246 | 5.2 | 9.6 | 0.00 | 0.55 | 0.00 | 88 | 1015.1 |
| 20260905050059 | 56 | 232 | 5.2 | 8.7 | 0.00 | 0.55 | 0.00 | 88 | 1015.1 |
| 20260905045557 | 56 | 246 | 3.5 | 8.7 | 0.00 | 0.55 | 0.00 | 88 | 1015.0 |
| 20260905045057 | 56 | 240 | 5.2 | 8.7 | 0.00 | 0.55 | 0.00 | 88 | 1015.0 |
| 20260905044605 | 56 | 238 | 4.3 | 9.6 | 0.00 | 0.55 | 0.00 | 87 | 1015.0 |
| 20260905044058 | 56 | 242 | 4.3 | 9.6 | 0.00 | 0.55 | 0.00 | 87 | 1015.0 |
| 20260905043558 | 56 | 240 | 4.3 | 9.6 | 0.00 | 0.55 | 0.00 | 87 | 1015.0 |
| 20260905043100 | 56 | 250 | 5.2 | 11.3 | 0.00 | 0.55 | 0.00 | 87 | 1014.9 |
| 20260905042601 | 57 | 229 | 6.1 | 12.2 | 0.00 | 0.55 | 0.00 | 87 | 1014.9 |
| 20260905042058 | 57 | 223 | 5.2 | 12.2 | 0.00 | 0.55 | 0.00 | 87 | 1014.9 |
| 20260905041611 | 57 | 269 | 5.2 | 12.2 | 0.00 | 0.55 | 0.00 | 87 | 1014.7 |
| 20260905041058 | 57 | 217 | 4.3 | 12.2 | 0.00 | 0.55 | 0.00 | 87 | 1014.7 |
| 20260905040557 | 57 | 251 | 5.2 | 11.3 | 0.00 | 0.55 | 0.00 | 87 | 1014.7 |
| 20260905040105 | 57 | 243 | 5.2 | 11.3 | 0.00 | 0.55 | 0.00 | 87 | 1014.7 |
| 20260905035558 | 57 | 246 | 7.0 | 11.3 | 0.00 | 0.55 | 0.00 | 87 | 1014.7 |
| 20260905035057 | 57 | 261 | 5.2 | 12.2 | 0.00 | 0.55 | 0.00 | 87 | 1014.7 |
| 20260905034602 | 57 | 264 | 4.3 | 12.2 | 0.00 | 0.55 | 0.00 | 87 | 1014.7 |
| 20260905034057 | 57 | 259 | 5.2 | 13.9 | 0.00 | 0.55 | 0.00 | 87 | 1014.6 |
| 20260905033558 | 57 | 251 | 5.2 | 13.9 | 0.00 | 0.55 | 0.00 | 87 | 1014.4 |
| 20260905033101 | 57 | 237 | 7.0 | 12.2 | 0.00 | 0.55 | 0.00 | 87 | 1014.4 |
| 20260905032558 | 57 | 243 | 6.1 | 12.2 | 0.00 | 0.55 | 0.00 | 87 | 1014.4 |
| 20260905032101 | 57 | 230 | 5.2 | 12.2 | 0.00 | 0.55 | 0.00 | 87 | 1014.4 |
| 20260905031604 | 57 | 255 | 7.0 | 12.2 | 0.00 | 0.55 | 0.00 | 87 | 1014.3 |
| 20260905031057 | 57 | 230 | 7.0 | 12.2 | 0.00 | 0.55 | 0.00 | 87 | 1014.3 |
| 20260905030557 | 57 | 239 | 5.2 | 13.0 | 0.00 | 0.55 | 0.00 | 86 | 1014.3 |
| 20260905030107 | 57 | 252 | 5.2 | 13.0 | 0.00 | 0.55 | 0.00 | 86 | 1014.2 |
| 20260905025558 | 57 | 266 | 5.2 | 12.2 | 0.00 | 0.55 | 0.00 | 86 | 1014.2 |
| 20260905025057 | 57 | 239 | 6.1 | 13.0 | 0.00 | 0.55 | 0.00 | 86 | 1014.2 |
| 20260905024640 | 57 | 248 | 5.2 | 13.0 | 0.00 | 0.55 | 0.00 | 86 | 1014.1 |
| 20260905024102 | 58 | 257 | 6.1 | 11.3 | 0.00 | 0.55 | 0.00 | 86 | 1014.1 |
| 20260905023558 | 58 | 265 | 7.8 | 11.3 | 0.00 | 0.55 | 0.00 | 86 | 1014.1 |
| 20260905023105 | 57 | 252 | 6.1 | 13.9 | 0.00 | 0.55 | 0.00 | 86 | 1014.1 |
| 20260905022557 | 57 | 242 | 6.1 | 13.9 | 0.00 | 0.55 | 0.00 | 86 | 1014.1 |
| 20260905022057 | 58 | 250 | 5.2 | 13.9 | 0.00 | 0.55 | 0.00 | 85 | 1014.1 |
| 20260905021605 | 58 | 231 | 6.1 | 10.4 | 0.00 | 0.55 | 0.00 | 85 | 1014.1 |
| 20260905021057 | 58 | 263 | 6.1 | 12.2 | 0.00 | 0.55 | 0.00 | 85 | 1014.1 |
| 20260905020557 | 58 | 271 | 6.1 | 12.2 | 0.00 | 0.55 | 0.00 | 85 | 1014.1 |
| 20260905015557 | 58 | 211 | 6.1 | 13.0 | 0.00 | 0.55 | 0.00 | 85 | 1014.0 |
| 20260905015059 | 58 | 243 | 5.2 | 13.0 | 0.00 | 0.55 | 0.00 | 85 | 1013.9 |
| 20260905014605 | 58 | 236 | 6.1 | 12.2 | 0.00 | 0.55 | 0.00 | 85 | 1013.8 |
| 20260905014101 | 58 | 240 | 7.0 | 13.0 | 0.00 | 0.55 | 0.00 | 85 | 1013.8 |
| 20260905013558 | 58 | 246 | 7.0 | 13.0 | 0.00 | 0.55 | 0.00 | 85 | 1013.8 |
| 20260905013059 | 58 | 209 | 6.1 | 13.0 | 0.00 | 0.55 | 0.00 | 85 | 1013.8 |
| 20260905012558 | 58 | 240 | 6.1 | 13.0 | 0.00 | 0.55 | 0.00 | 85 | 1013.8 |
| 20260905012058 | 58 | 252 | 6.1 | 13.0 | 0.00 | 0.55 | 0.00 | 85 | 1013.8 |
| 20260905011602 | 58 | 245 | 6.1 | 13.0 | 0.00 | 0.55 | 0.00 | 85 | 1013.7 |
| 20260905011057 | 58 | 244 | 6.1 | 11.3 | 0.00 | 0.55 | 0.00 | 86 | 1013.8 |
| 20260905010601 | 58 | 250 | 5.2 | 12.2 | 0.00 | 0.55 | 0.00 | 86 | 1013.7 |
| 20260905010107 | 58 | 271 | 6.1 | 12.2 | 0.00 | 0.55 | 0.00 | 85 | 1013.8 |
| 20260905005557 | 58 | 268 | 6.1 | 12.2 | 0.00 | 0.55 | 0.00 | 85 | 1013.7 |
| 20260905005058 | 58 | 242 | 5.2 | 12.2 | 0.00 | 0.55 | 0.00 | 85 | 1013.8 |
| 20260905004606 | 58 | 287 | 5.2 | 11.3 | 0.00 | 0.55 | 0.00 | 85 | 1013.8 |
| 20260905004059 | 58 | 257 | 7.0 | 12.2 | 0.00 | 0.55 | 0.00 | 85 | 1013.7 |
| 20260905003557 | 58 | 259 | 7.8 | 12.2 | 0.00 | 0.55 | 0.00 | 85 | 1013.8 |
| 20260905003115 | 58 | 244 | 7.0 | 11.3 | 0.00 | 0.55 | 0.00 | 85 | 1013.7 |
| 20260905002558 | 58 | 259 | 6.1 | 13.0 | 0.00 | 0.55 | 0.00 | 85 | 1013.8 |
| 20260905002058 | 58 | 246 | 7.0 | 13.0 | 0.00 | 0.55 | 0.00 | 85 | 1013.7 |
| 20260905001600 | 58 | 256 | 6.1 | 13.0 | 0.00 | 0.55 | 0.00 | 85 | 1013.7 |
| 20260905001057 | 58 | 236 | 6.1 | 13.0 | 0.00 | 0.55 | 0.00 | 85 | 1013.7 |
| 20260905000558 | 58 | 250 | 5.2 | 12.2 | 0.00 | 0.55 | 0.00 | 85 | 1013.6 |
| 20260905000110 | 58 | 275 | 6.1 | 12.2 | 0.00 | 0.55 | 0.00 | 85 | 1013.6 |
| 20260904235557 | 58 | 283 | 6.1 | 13.9 | 0.00 | 0.55 | 0.00 | 85 | 1013.5 |
| 20260904235057 | 59 | 254 | 7.0 | 13.9 | 0.00 | 0.55 | 0.00 | 85 | 1013.6 |
| 20260904234607 | 59 | 257 | 7.0 | 13.9 | 0.00 | 0.55 | 0.00 | 85 | 1013.3 |
| 20260904234057 | 59 | 268 | 6.1 | 12.2 | 0.00 | 0.55 | 0.00 | 85 | 1013.3 |
| 20260904233557 | 59 | 265 | 6.1 | 12.2 | 0.00 | 0.55 | 0.00 | 85 | 1013.4 |
| 20260904233104 | 59 | 279 | 7.0 | 13.0 | 0.00 | 0.55 | 0.00 | 85 | 1013.3 |
| 20260904232558 | 59 | 265 | 6.1 | 14.8 | 0.00 | 0.55 | 0.00 | 85 | 1013.3 |
| 20260904232057 | 59 | 269 | 5.2 | 14.8 | 0.00 | 0.55 | 0.00 | 85 | 1013.3 |
| 20260904231600 | 59 | 256 | 7.0 | 13.9 | 0.00 | 0.55 | 0.00 | 85 | 1013.3 |
| 20260904231101 | 59 | 270 | 7.0 | 17.4 | 0.00 | 0.55 | 0.00 | 85 | 1013.2 |
| 20260904230558 | 59 | 271 | 8.7 | 17.4 | 0.00 | 0.55 | 0.00 | 85 | 1013.2 |
| 20260904230104 | 59 | 274 | 6.1 | 15.6 | 0.00 | 0.55 | 0.00 | 85 | 1013.1 |
| 20260904225557 | 59 | 260 | 7.8 | 13.0 | 0.00 | 0.55 | 0.00 | 85 | 1013.1 |
| 20260904225057 | 59 | 265 | 7.8 | 13.9 | 0.00 | 0.55 | 0.00 | 85 | 1013.0 |